TimeMST,TemperatureF,Dew PointF,Humidity,Sea Level PressureIn,VisibilityMPH,Wind Direction,Wind SpeedMPH,Gust SpeedMPH,PrecipitationIn,Events,Conditions,WindDirDegrees,DateUTC
12:15 AM,35.6,30.2,81,29.24,10.0,SSW,6.9,-,N/A,,Clear,210,2014-01-12 07:15:00
12:35 AM,35.6,30.2,81,29.25,10.0,SSW,9.2,-,N/A,,Clear,200,2014-01-12 07:35:00
12:55 AM,37.4,30.2,75,29.26,10.0,South,9.2,-,N/A,,Clear,190,2014-01-12 07:55:00
1:15 AM,35.6,30.2,81,29.26,10.0,South,9.2,-,N/A,,Clear,190,2014-01-12 08:15:00
1:35 AM,37.4,30.2,75,29.25,10.0,SSW,6.9,-,N/A,,Clear,210,2014-01-12 08:35:00
1:55 AM,35.6,30.2,81,29.27,10.0,SSW,9.2,-,N/A,,Scattered Clouds,210,2014-01-12 08:55:00
2:15 AM,37.4,30.2,75,29.27,10.0,SW,13.8,-,N/A,,Partly Cloudy,230,2014-01-12 09:15:00
2:35 AM,37.4,30.2,75,29.29,10.0,SW,18.4,-,N/A,,Clear,230,2014-01-12 09:35:00
2:55 AM,37.4,30.2,75,29.29,10.0,SW,19.6,-,N/A,,Scattered Clouds,230,2014-01-12 09:55:00
3:15 AM,37.4,30.2,75,29.29,10.0,SW,20.7,-,N/A,,Mostly Cloudy,230,2014-01-12 10:15:00
3:35 AM,37.4,28.4,70,29.29,10.0,WSW,20.7,-,N/A,,Partly Cloudy,240,2014-01-12 10:35:00
3:55 AM,37.4,28.4,70,29.28,10.0,WSW,18.4,-,N/A,,Clear,240,2014-01-12 10:55:00
4:15 AM,35.6,28.4,75,29.28,10.0,WSW,16.1,-,N/A,,Clear,240,2014-01-12 11:15:00
4:35 AM,35.6,26.6,70,29.29,10.0,WSW,17.3,-,N/A,,Clear,250,2014-01-12 11:35:00
4:55 AM,35.6,26.6,70,29.29,10.0,WSW,16.1,-,N/A,,Clear,250,2014-01-12 11:55:00
5:15 AM,35.6,26.6,70,29.29,10.0,WSW,13.8,-,N/A,,Clear,250,2014-01-12 12:15:00
5:35 AM,33.8,26.6,75,29.29,10.0,WSW,16.1,-,N/A,,Clear,250,2014-01-12 12:35:00
5:55 AM,33.8,24.8,70,29.28,10.0,West,17.3,-,N/A,,Clear,260,2014-01-12 12:55:00
6:15 AM,33.8,24.8,70,29.29,10.0,WSW,18.4,-,N/A,,Clear,250,2014-01-12 13:15:00
6:35 AM,33.8,24.8,70,29.28,10.0,WSW,18.4,-,N/A,,Clear,250,2014-01-12 13:35:00
6:55 AM,32.0,23.0,69,29.28,10.0,WSW,18.4,-,N/A,,Clear,250,2014-01-12 13:55:00
7:15 AM,32.0,23.0,69,29.29,10.0,WSW,17.3,-,N/A,,Clear,240,2014-01-12 14:15:00
7:35 AM,32.0,23.0,69,29.30,10.0,WSW,19.6,-,N/A,,Clear,240,2014-01-12 14:35:00
7:55 AM,30.2,21.2,69,29.31,10.0,WSW,18.4,-,N/A,,Clear,250,2014-01-12 14:55:00
8:15 AM,32.0,21.2,64,29.31,10.0,WSW,16.1,-,N/A,,Clear,250,2014-01-12 15:15:00
8:35 AM,32.0,23.0,69,29.32,10.0,West,12.7,-,N/A,,Clear,270,2014-01-12 15:35:00
8:55 AM,32.0,21.2,64,29.32,10.0,WSW,16.1,-,N/A,,Clear,250,2014-01-12 15:55:00
9:15 AM,33.8,23.0,65,29.33,10.0,WSW,17.3,-,N/A,,Clear,250,2014-01-12 16:15:00
9:35 AM,33.8,23.0,65,29.34,10.0,WSW,17.3,-,N/A,,Clear,240,2014-01-12 16:35:00
9:55 AM,35.6,23.0,60,29.34,10.0,WSW,17.3,23.0,N/A,,Clear,250,2014-01-12 16:55:00
10:15 AM,35.6,24.8,65,29.33,10.0,WSW,20.7,-,N/A,,Clear,250,2014-01-12 17:15:00
10:35 AM,37.4,24.8,60,29.33,10.0,West,17.3,-,N/A,,Clear,260,2014-01-12 17:35:00
10:55 AM,37.4,26.6,65,29.33,10.0,WSW,19.6,-,N/A,,Clear,250,2014-01-12 17:55:00
11:15 AM,39.2,26.6,61,29.33,10.0,West,21.9,-,N/A,,Clear,270,2014-01-12 18:15:00
11:35 AM,39.2,26.6,61,29.33,10.0,West,18.4,25.3,N/A,,Clear,270,2014-01-12 18:35:00
11:55 AM,39.2,26.6,61,29.32,10.0,West,15.0,-,N/A,,Clear,270,2014-01-12 18:55:00
12:15 PM,39.2,26.6,61,29.33,10.0,West,17.3,-,N/A,,Clear,270,2014-01-12 19:15:00
12:35 PM,39.2,26.6,61,29.33,10.0,West,18.4,-,N/A,,Clear,270,2014-01-12 19:35:00
12:55 PM,39.2,26.6,61,29.33,10.0,West,18.4,-,N/A,,Clear,280,2014-01-12 19:55:00
1:15 PM,39.2,26.6,61,29.33,10.0,West,21.9,-,N/A,,Clear,280,2014-01-12 20:15:00
1:35 PM,41.0,26.6,57,29.35,10.0,West,19.6,27.6,N/A,,Clear,280,2014-01-12 20:35:00
1:55 PM,39.2,26.6,61,29.37,10.0,West,20.7,28.8,N/A,,Clear,280,2014-01-12 20:55:00
2:15 PM,39.2,26.6,61,29.38,10.0,West,18.4,-,N/A,,Clear,270,2014-01-12 21:15:00
2:35 PM,39.2,26.6,61,29.40,10.0,West,18.4,24.2,N/A,,Clear,270,2014-01-12 21:35:00
2:55 PM,39.2,28.4,65,29.41,10.0,West,16.1,-,N/A,,Clear,270,2014-01-12 21:55:00
3:15 PM,39.2,28.4,65,29.41,10.0,West,18.4,25.3,N/A,,Clear,280,2014-01-12 22:15:00
3:35 PM,37.4,28.4,70,29.43,10.0,WNW,16.1,24.2,N/A,,Clear,290,2014-01-12 22:35:00
3:55 PM,37.4,28.4,70,29.45,10.0,WNW,17.3,-,N/A,,Clear,290,2014-01-12 22:55:00
4:15 PM,37.4,28.4,70,29.46,10.0,WNW,18.4,-,N/A,,Mostly Cloudy,300,2014-01-12 23:15:00
4:35 PM,37.4,28.4,70,29.49,10.0,NW,18.4,-,N/A,,Overcast,310,2014-01-12 23:35:00
4:55 PM,35.6,28.4,75,29.52,10.0,NW,21.9,-,N/A,,Overcast,320,2014-01-12 23:55:00
5:15 PM,35.6,28.4,75,29.55,10.0,NW,19.6,27.6,N/A,,Overcast,320,2014-01-13 00:15:00
5:35 PM,33.8,28.4,81,29.57,10.0,NNW,25.3,32.2,N/A,,Overcast,330,2014-01-13 00:35:00
5:55 PM,33.8,28.4,81,29.59,10.0,NNW,24.2,-,N/A,,Overcast,330,2014-01-13 00:55:00
6:15 PM,32.0,24.8,75,29.60,10.0,NNW,24.2,-,N/A,,Overcast,330,2014-01-13 01:15:00
6:35 PM,30.2,24.8,80,29.63,10.0,NW,20.7,-,N/A,,Overcast,320,2014-01-13 01:35:00
6:55 PM,30.2,23.0,75,29.64,10.0,NW,24.2,32.2,N/A,,Overcast,320,2014-01-13 01:55:00
7:15 PM,30.2,23.0,75,29.64,10.0,NW,21.9,29.9,N/A,,Overcast,310,2014-01-13 02:15:00
7:35 PM,28.4,23.0,80,29.64,10.0,NW,18.4,25.3,N/A,,Scattered Clouds,310,2014-01-13 02:35:00
7:55 PM,28.4,23.0,80,29.63,10.0,WNW,18.4,-,N/A,,Clear,300,2014-01-13 02:55:00
8:15 PM,28.4,21.2,74,29.64,10.0,WNW,15.0,23.0,N/A,,Clear,300,2014-01-13 03:15:00
8:35 PM,26.6,21.2,80,29.64,10.0,WNW,10.4,17.3,N/A,,Clear,300,2014-01-13 03:35:00
8:55 PM,26.6,21.2,80,29.65,10.0,NW,18.4,-,N/A,,Clear,310,2014-01-13 03:55:00
9:15 PM,26.6,19.4,74,29.67,10.0,WNW,9.2,16.1,N/A,,Clear,300,2014-01-13 04:15:00
9:35 PM,24.8,19.4,80,29.66,10.0,WNW,9.2,-,N/A,,Clear,290,2014-01-13 04:35:00
9:55 PM,26.6,19.4,74,29.66,10.0,WNW,16.1,-,N/A,,Clear,290,2014-01-13 04:55:00
10:15 PM,26.6,19.4,74,29.67,10.0,WNW,19.6,-,N/A,,Clear,290,2014-01-13 05:15:00
10:35 PM,24.8,17.6,74,29.67,10.0,WNW,15.0,20.7,N/A,,Clear,290,2014-01-13 05:35:00
10:55 PM,24.8,17.6,74,29.66,10.0,West,13.8,-,N/A,,Clear,270,2014-01-13 05:55:00
11:15 PM,23.0,15.8,74,29.67,10.0,West,11.5,-,N/A,,Clear,260,2014-01-13 06:15:00
11:35 PM,21.2,15.8,80,29.68,10.0,West,10.4,-,N/A,,Clear,260,2014-01-13 06:35:00
11:55 PM,21.2,15.8,80,29.68,10.0,West,13.8,-,N/A,,Clear,280,2014-01-13 06:55:00